TimeEST,TemperatureF,Dew PointF,Humidity,Sea Level PressureIn,VisibilityMPH,Wind Direction,Wind SpeedMPH,Gust SpeedMPH,PrecipitationIn,Events,Conditions,WindDirDegrees,DateUTC
12:15 AM,35.6,24.8,65,30.06,10.0,NW,6.9,-,N/A,,Clear,310,2012-12-30 05:15:00
12:35 AM,35.6,23.0,60,30.07,10.0,Calm,Calm,-,N/A,,Clear,0,2012-12-30 05:35:00
12:55 AM,35.6,24.8,65,30.08,10.0,WNW,5.8,-,N/A,,Scattered Clouds,300,2012-12-30 05:55:00
1:15 AM,35.6,24.8,65,30.09,10.0,NW,4.6,-,N/A,,Scattered Clouds,310,2012-12-30 06:15:00
1:35 AM,35.6,24.8,65,30.10,10.0,WNW,4.6,-,N/A,,Scattered Clouds,300,2012-12-30 06:35:00
1:55 AM,35.6,24.8,65,30.10,10.0,NW,5.8,-,N/A,,Scattered Clouds,320,2012-12-30 06:55:00
2:15 AM,33.8,23.0,65,30.11,10.0,WNW,6.9,-,N/A,,Clear,300,2012-12-30 07:15:00
2:35 AM,35.6,23.0,60,30.12,10.0,WNW,4.6,-,N/A,,Clear,300,2012-12-30 07:35:00
2:55 AM,33.8,21.2,60,30.13,10.0,NW,3.5,-,N/A,,Clear,310,2012-12-30 07:55:00
3:15 AM,33.8,21.2,60,30.14,10.0,WNW,5.8,-,N/A,,Clear,300,2012-12-30 08:15:00
3:35 AM,33.8,21.2,60,30.15,10.0,WNW,3.5,-,N/A,,Clear,300,2012-12-30 08:35:00
3:55 AM,32.0,23.0,69,30.15,10.0,Calm,Calm,-,N/A,,Clear,0,2012-12-30 08:55:00
4:15 AM,30.2,21.2,69,30.16,10.0,Calm,Calm,-,N/A,,Clear,0,2012-12-30 09:15:00
4:35 AM,32.0,21.2,64,30.17,10.0,West,3.5,-,N/A,,Clear,280,2012-12-30 09:35:00
4:55 AM,32.0,21.2,64,30.17,10.0,NW,3.5,-,N/A,,Clear,320,2012-12-30 09:55:00
5:15 AM,32.0,21.2,64,30.18,10.0,Calm,Calm,-,N/A,,Clear,0,2012-12-30 10:15:00
5:35 AM,32.0,19.4,60,30.19,10.0,NW,3.5,-,N/A,,Clear,310,2012-12-30 10:35:00
5:55 AM,30.2,19.4,64,30.20,10.0,NW,3.5,-,N/A,,Clear,310,2012-12-30 10:55:00
6:15 AM,32.0,21.2,64,30.22,10.0,NW,4.6,-,N/A,,Clear,310,2012-12-30 11:15:00
6:35 AM,32.0,19.4,60,30.23,10.0,Calm,Calm,-,N/A,,Clear,0,2012-12-30 11:35:00
6:55 AM,32.0,19.4,60,30.24,10.0,Calm,Calm,-,N/A,,Clear,0,2012-12-30 11:55:00
7:55 AM,26.6,19.4,74,30.29,10.0,Calm,Calm,-,N/A,,Clear,0,2012-12-30 12:55:00
9:55 AM,37.4,21.2,52,30.35,10.0,Calm,Calm,-,N/A,,Clear,0,2012-12-30 14:55:00
10:55 AM,41.0,19.4,42,30.39,10.0,North,5.8,-,N/A,,Clear,10,2012-12-30 15:55:00
11:55 AM,42.8,17.6,36,30.37,10.0,NW,9.2,16.1,N/A,,Clear,310,2012-12-30 16:55:00
12:55 PM,44.6,17.6,34,30.37,10.0,WNW,9.2,-,N/A,,Clear,290,2012-12-30 17:55:00
1:55 PM,46.4,17.6,32,30.36,10.0,WNW,5.8,-,N/A,,Clear,290,2012-12-30 18:55:00
2:55 PM,48.2,15.8,27,30.36,10.0,NW,5.8,-,N/A,,Clear,310,2012-12-30 19:55:00
3:55 PM,46.4,17.6,32,30.36,10.0,NW,5.8,-,N/A,,Clear,320,2012-12-30 20:55:00
4:55 PM,46.4,15.8,29,30.36,10.0,Calm,Calm,-,N/A,,Clear,0,2012-12-30 21:55:00
5:55 PM,42.8,17.6,36,30.37,10.0,Calm,Calm,-,N/A,,Clear,0,2012-12-30 22:55:00
6:55 PM,35.6,19.4,52,30.39,10.0,Calm,Calm,-,N/A,,Clear,0,2012-12-30 23:55:00
7:55 PM,32.0,15.8,51,30.41,10.0,Calm,Calm,-,N/A,,Clear,0,2012-12-31 00:55:00
8:15 PM,32.0,23.0,69,30.40,10.0,Calm,Calm,-,N/A,,Clear,0,2012-12-31 01:15:00
8:35 PM,32.0,21.2,64,30.40,10.0,Calm,Calm,-,N/A,,Clear,0,2012-12-31 01:35:00
8:55 PM,32.0,21.2,64,30.40,10.0,Calm,Calm,-,N/A,,Clear,0,2012-12-31 01:55:00
9:15 PM,30.2,21.2,69,30.41,10.0,Calm,Calm,-,N/A,,Clear,0,2012-12-31 02:15:00
9:35 PM,30.2,21.2,69,30.41,10.0,Calm,Calm,-,N/A,,Clear,0,2012-12-31 02:35:00
9:55 PM,30.2,21.2,69,30.42,10.0,Calm,Calm,-,N/A,,Clear,0,2012-12-31 02:55:00
10:15 PM,30.2,21.2,69,30.42,10.0,NNW,3.5,-,N/A,,Clear,330,2012-12-31 03:15:00
10:35 PM,30.2,21.2,69,30.42,10.0,Calm,Calm,-,N/A,,Clear,0,2012-12-31 03:35:00
10:55 PM,30.2,23.0,75,30.41,10.0,Calm,Calm,-,N/A,,Clear,0,2012-12-31 03:55:00
11:15 PM,28.4,23.0,80,30.40,10.0,Calm,Calm,-,N/A,,Clear,0,2012-12-31 04:15:00
11:35 PM,28.4,23.0,80,30.39,10.0,Calm,Calm,-,N/A,,Clear,0,2012-12-31 04:35:00
11:55 PM,28.4,23.0,80,30.40,10.0,Calm,Calm,-,N/A,,Clear,0,2012-12-31 04:55:00